Zurück zum Katalog

STARLINK-3389

AktivKommunikationVLEO
NORAD 51124·PAYLOAD·🇺🇸 United States

Gestartet Jan 19, 2022 von Cape Canaveral Space Force Station

Loading…

Nächste Überflüge (nächste 24 Stunden)

TLE

AktuellSource: CelesTrak SupGP

Epoche: Sep 14, 2026, 21:15 UTC

1 51124C 22005W   26257.88590278 -.00023699  00000+0 -69884-3 0  2576
2 51124  53.1587 163.8396 0001287  91.4745 175.2261 15.34463137    10

Verfolge STARLINK-3389 in Echtzeit mit AllMySat

Download on the App Store